Regional Weather Roundup
Issued by NWS

Home | Current Version | Previous Version | Text Only | Print | Product List | Glossary On
Versions: 1 2 3 4 5 6 7 8 9 10 11 12 13 14 15 16 17 18 19 20 21 22 23 24 25 26 27 28 29 30 31 32 33 34 35 36 37 38 39 40 41 42 43 44 45 46 47 48 49 50
000
ASUS43 KFSD 230702
RWRSD

WEATHER ROUNDUP FOR SOUTH DAKOTA
NATIONAL WEATHER SERVICE SIOUX FALLS SD
200 AM CDT SAT MAY 23 2015

NOTE: "FAIR" INDICATES FEW OR NO CLOUDS BELOW 12,000 FEET WITH NO
SIGNIFICANT WEATHER AND/OR OBSTRUCTIONS TO VISIBILITY.


SDZ001>005-009-010-012>017-230800-
NORTHWEST AND NORTH CENTRAL SOUTH DAKOTA

CITY           SKY/WX    TMP DP  RH WIND       PRES   REMARKS
BUFFALO          N/A     44  39  82 SE12      30.00F
FAITH            N/A     45  40  82 SE9       30.09S
MOBRIDGE       PTCLDY    50  45  83 S7        30.12S
$$

SDZ012>016-024>037-041>051-057-063-072>074-230800-
SOUTHWEST AND SOUTH CENTRAL SOUTH DAKOTA

CITY           SKY/WX    TMP DP  RH WIND       PRES   REMARKS
RAPID CTY ARPT CLOUDY    48  44  86 S12       30.06F
PIERRE         CLOUDY    49  42  77 SE8       30.13S
CUSTER         FOG       40  39  97 SE5       30.06F VSB 1/2
ELLSWORTH AFB  CLOUDY    48  44  86 S12       30.05
PHILIP         CLOUDY    50  44  80 SE7       30.10F
PINE RIDGE     CLOUDY    48  42  80 SE6       30.07F
WINNER         CLOUDY    51  45  79 SE6       30.14F
$$

SDZ004>011-016>023-039-040-230800-
NORTHEAST SOUTH DAKOTA

CITY           SKY/WX    TMP DP  RH WIND       PRES   REMARKS
ABERDEEN       PTCLDY    47  42  83 S5        30.19R
WATERTOWN      PTCLDY    50  42  74 CALM      30.20S
BROOKINGS      CLOUDY    54  45  71 CALM      30.22R
$$

SDZ017-020-022-023-036>040-048>070-230800-
SOUTHEAST SOUTH DAKOTA

CITY           SKY/WX    TMP DP  RH WIND       PRES   REMARKS
SIOUX FALLS    CLOUDY    57  44  62 S9        30.21R
HURON          MOCLDY    48  43  82 SE3       30.19S
CHAMBERLAIN    CLOUDY    51  46  84 SE8       30.16F
MITCHELL       CLOUDY    55  47  74 VRB3      30.19F
YANKTON        CLOUDY    54  46  76 NE5       30.18F
$$

ABBREVIATIONS USED IN REMARKS
   TC - TEMPERATURE IN CELSIUS
  WCI - WIND CHILL INDEX
   HX - HEAT INDEX
  VSB - VISIBILITY



USA.gov is the U.S. government's official web portal to all federal, state and local government web resources and services.